Regional Weather Roundup
Issued by NWS

Home | Current Version | Previous Version | Graphics & Text | Print | Product List | Glossary On
Versions: 1 2 3 4 5 6 7 8 9 10 11 12 13 14 15 16 17 18 19 20 21 22 23 24 25 26 27 28
000
ASUS45 KTFX 260510
RWRMT
MONTANA REGIONAL WEATHER ROUNDUP
NATIONAL WEATHER SERVICE GREAT FALLS MT
1100 PM MDT MON JUL 25 2016

NOTE: "FAIR" INDICATES FEW OR NO CLOUDS BELOW 12000 FEET WITH NO
SIGNIFICANT WEATHER AND/OR OBSTRUCTIONS TO VISIBILITY.

MTZ001>007-043-260600-
WEST OF THE DIVIDE

CITY           SKY/WX    TMP DP  RH WIND       PRES   REMARKS
KALISPELL      CLEAR     63  55  75 N7        30.02R
MISSOULA       CLEAR     68  49  50 W3        30.04R
BUTTE          CLEAR     61  48  62 E6        30.19S
MULLAN PASS    CLEAR     64  41  42 NW3       30.23R
ANACONDA         N/A     63  46  55 SW6       30.15F
DEER LODGE       N/A     61  52  72 CALM      30.16S
EUREKA           N/A     75  54  46 W6        30.01R
HAMILTON         N/A     64  43  45 CALM      30.06R
LIBBY            N/A     72  48  43 S5        30.01R
RONAN            N/A     65  54  67 CALM      30.07R
$$

MTZ008-052>055-260600-
SOUTHWEST MONTANA

CITY           SKY/WX    TMP DP  RH WIND       PRES   REMARKS
BOZEMAN        CLOUDY    77  39  25 S5        30.12R
DILLON         CLEAR     64  45  49 E10       30.15R
W YELLOWSTONE  CLOUDY    59  32  36 CALM      30.25S
ENNIS          CLEAR     70  36  28 NE13      30.20R
THREE FORKS      N/A     70   7   8 W7        30.10R
TWIN BRIDGES     N/A     70  42  36 N12       30.10R
$$

MTZ009-010-012-014-046-048-049-054-260600-
EAST SLOPES AND CENTRAL MONTANA

CITY           SKY/WX    TMP DP  RH WIND       PRES   REMARKS
CUT BANK         N/A     69  50  50 E9        30.11R
GREAT FALLS    CLOUDY    68  47  46 W7        30.07F
MALMSTROM AFB  MOCLDY    75  45  34 W6        30.07F
HELENA         PTCLDY    69  50  50 W7        30.09R
CHOTEAU          N/A     68  54  60 SW6       30.13R
$$

MTZ011-013-016-021-045-047-050-051-260600-
NORTH CENTRAL MONTANA

CITY           SKY/WX    TMP DP  RH WIND       PRES   REMARKS
HAVRE          CLEAR     73  59  61 E12       30.04R
LEWISTOWN      CLOUDY    72  51  47 S13       30.13R
N BAR RANCH    MOCLDY    75  43  31 S17G26    30.18R
CHINOOK          N/A     73  59  60 E3        30.04R
$$

MTZ017>020-022>027-061-062-260600-
NORTHEAST MONTANA

CITY           SKY/WX    TMP DP  RH WIND       PRES   REMARKS
GLASGOW        CLEAR     73  59  61 NE17      29.99S
JORDAN           N/A     73  48  41 CALM      30.00R
SIDNEY         CLEAR     73  60  63 N5        30.00R
WOLF POINT     CLEAR     74  59  59 NE8       29.99R
PLENTYWOOD       N/A     68  63  83 N8        30.04R
POPLAR           N/A     70  57  64 N6        30.00R
$$

MTZ028>42-056>058-260600-
SOUTHCENTRAL AND SOUTHEAST MONTANA

CITY           SKY/WX    TMP DP  RH WIND       PRES   REMARKS
BAKER          CLOUDY    73  55  53 E9        30.02R
BILLINGS       CLOUDY    77  46  33 N32G43    30.03F THUNDER
LIVINGSTON     MOCLDY    72  42  34 SW5       30.17R
MILES CITY     CLEAR     81  47  30 NE12      29.97R
FORSYTH          N/A     82  46  28 NE8       29.96R
LAUREL           N/A     77  43  29 N17       30.04R
ROUNDUP          N/A     77  43  29 S10       30.03R
$$

REGIONAL REPORTS...DAKOTAS

CITY           SKY/WX    TMP DP  RH WIND       PRES   REMARKS
WILLISTON      CLEAR     71  59  65 N6        30.00R
MINOT          CLEAR     69  64  84 NW5       29.98R
DICKINSON      PTCLDY    66  60  81 E7        29.99S
BEACH            N/A     68  54  60 NE7       30.05R
CROSBY           N/A     64  64 100 NW5       30.03S
WATFORD CITY     N/A    N/A N/A N/A MISG        N/A
BISMARCK       PTCLDY    74  68  81 NE9       29.95R
GRAND FORKS    CLEAR     76  66  71 NE13      29.91R
FARGO          MOCLDY    77  66  68 S8        29.92R
BUFFALO SD       N/A     77  52  41 NW3       29.95S
RAPID CITY     CLEAR     70  57  63 SE6       30.03R
$$

REGIONAL REPORTS...WYOMING/IDAHO/WASHINGTON

CITY           SKY/WX    TMP DP  RH WIND       PRES   REMARKS
GILLETTE       CLEAR     76  49  38 SE12      30.04R
SHERIDAN       CLEAR     69  46  43 CALM      30.01R
BUFFALO WY     CLEAR     75  35  23 W9        30.10R
CODY           CLEAR     73  37  27 N9G16     30.13R
YELLOWSTONE LA   N/A     53  32  44 CALM      30.36S
IDAHO FALLS    CLEAR     71  38  29 SW9       30.06R
SALMON         CLEAR     72  39  30 E7        30.05R
BOISE          CLEAR     84  37  18 CALM      29.91R
SPOKANE        PTCLDY    82  44  26 S3        29.97S
$$

REGIONAL REPORTS...ALBERTA

CITY           SKY/WX    TMP DP  RH WIND       PRES   REMARKS
EDMONTON       PTCLDY    63  54  72 SE6       30.03R
CALGARY        MOCLDY    61  57  88 S5        30.10S
LETHBRIDGE     MOCLDY    66  59  77 E8        30.07F
MEDICINE HAT   CLEAR     68  59  73 E6        30.05R
WATERTON GATE    N/A     64  54  68 N3          N/A
MILK RIVER       N/A     63  55  77 E8          N/A
ONEFOUR          N/A     70  57  64 NE12        N/A
$$

REGIONAL REPORTS...SASKATCHEWAN

CITY           SKY/WX    TMP DP  RH WIND       PRES   REMARKS
SWIFT CURRENT  CLEAR     63  54  72 E7        30.09R
SASKATOON      PTCLDY    54  50  87 NW9       30.08R
CYPRESS HILLS    N/A     63  55  77 E8          N/A
VAL MARIE        N/A     63  59  88 NE7         N/A
ROCKGLEN         N/A     64  59  82 NE6         N/A
$$




USA.gov is the U.S. government's official web portal to all federal, state and local government web resources and services.